This demonstration page uses our WeatherBlox Daily Observations layout. Learn more.

Left ArrowRight Arrow

Hourly Observations for May 1, 2020

Temp ( °F °C ) Dew Point ( °F °C ) Humidity (%) Winds ( mph kmh ) Pressure ( in mb ) Visibility ( mi km ) Precip ( " mm )
12:53 am 00:53 Cloudy 48 8.9 40 4.4 74 74 W 7 11 29.84 1011 10 16 0.00 0.00
1:53 am 01:53 Cloudy 48 8.9 40 4.4 74 74 WNW 10 17 29.85 1011 10 16 0.00 0.00
2:53 am 02:53 Cloudy 48 8.9 40 4.4 74 74 WNW 12 19 29.86 1011 10 16 0.00 0.00
3:53 am 03:53 Cloudy 47 8.3 40 4.4 77 77 WNW 9 15 29.87 1012 10 16 0.00 0.00
4:53 am 04:53 Cloudy 47 8.3 40 4.4 77 77 NW 10 17 29.90 1013 10 16 0.00 0.00
5:53 am 05:53 Cloudy 47 8.3 41 5 80 80 NNW 9 15 29.91 1013 10 16 0.00 0.00
6:53 am 06:53 Cloudy 47 8.3 41 5 80 80 WNW 8 13 29.94 1014 10 16 0.00 0.00
7:53 am 07:53 Cloudy 47 8.3 41 5 80 80 WNW 9 15 29.98 1015 10 16 0.00 0.00
8:53 am 08:53 Cloudy 48 8.9 41 5 77 77 NNW 10 17 30.01 1016 10 16 0.00 0.00
9:53 am 09:53 Cloudy 48 8.9 42 5.6 80 80 NW 9 15 30.04 1017 10 16 0.00 0.00
10:53 am 10:53 Cloudy 51 10.6 42 5.6 71 71 NNW 9 15 30.05 1018 10 16 0.00 0.00
11:53 am 11:53 Cloudy 53 11.7 43 6.1 69 69 VRB 7 11 30.06 1018 10 16 0.00 0.00
12:35 pm 12:35 Partly Cloudy 57 13.9 44 6.7 62 62 VRB 5 7 30.06 1018 10 16 0.00 0.00
12:53 pm 12:53 Partly Cloudy 57 13.9 43 6.1 60 60 WNW 9 15 30.06 1018 10 16 0.00 0.00
1:53 pm 13:53 Partly Cloudy 61 16.1 44 6.7 54 54 VRB 3 6 30.04 1017 10 16 0.00 0.00
2:53 pm 14:53 Mostly Sunny 64 17.8 43 6.1 46 46 N 3 6 30.04 1017 10 16 0.00 0.00
3:53 pm 15:53 Sunny 66 18.9 42 5.6 42 42 VRB 6 9 30.03 1017 10 16 0.00 0.00
4:53 pm 16:53 Sunny 67 19.4 39 3.9 36 36 VRB 5 7 30.02 1017 10 16 0.00 0.00
5:53 pm 17:53 Sunny 68 20 39 3.9 35 35 WSW 7 11 30.03 1017 10 16 0.00 0.00
6:53 pm 18:53 Sunny 67 19.4 38 3.3 35 35 W 5 7 30.04 1017 10 16 0.00 0.00
7:53 pm 19:53 Sunny 60 15.6 42 5.6 52 52 NW 5 7 30.06 1018 10 16 0.00 0.00
8:53 pm 20:53 Clear 57 13.9 48 8.9 72 72 Calm 30.07 1018 10 16 0.00 0.00
9:53 pm 21:53 Clear 54 12.2 47 8.3 77 77 Calm 30.09 1019 10 16 0.00 0.00
10:53 pm 22:53 Clear 54 12.2 47 8.3 77 77 ESE 3 6 30.08 1019 10 16 0.00 0.00
11:53 pm 23:53 Mostly Clear 55 12.8 46 7.8 72 72 E 3 6 30.06 1018 10 16 0.00 0.00

Powered by AerisWeather